When you browse on this site, cookies collect data to enhance your experience and personalize the content and advertising you see.
Visit our Privacy Policy to learn more. By continuing to use the site, you agree to this use of cookies and data.
  • In Czech Republic
  • List of Countries
  • For 7 days
  • Water Temperature
  • Satellite Maps
  • Weather Map
  • Weather Widgets
  • user-avatar
    Login

    Hourly Weather Tianjin

    Today, 24 March, Sunday

    Time Temperature Precipitation Wind Pressure Humidity
    00:00 +6°C° 0 mm 4 mps 766 mmHg 13%
    01:00 +6°C° 0 mm 4 mps 766 mmHg 13%
    02:00 +5°C° 0 mm 3 mps 765 mmHg 15%
    03:00 +5°C° 0 mm 4 mps 765 mmHg 16%
    04:00 +5°C° 0 mm 4 mps 764 mmHg 17%
    05:00 +4°C° 0 mm 4 mps 764 mmHg 18%
    06:00 +5°C° 0 mm 4 mps 764 mmHg 18%
    07:00 +6°C° 0 mm 5 mps 763 mmHg 18%
    08:00 +7°C° 0 mm 5 mps 763 mmHg 20%
    09:00 +8°C° 0 mm 5 mps 762 mmHg 18%
    10:00 +10°C° 0 mm 5 mps 762 mmHg 17%
    11:00 +13°C° 0 mm 5 mps 761 mmHg 15%
    12:00 +15°C° 0 mm 5 mps 760 mmHg 13%
    13:00 +17°C° 0 mm 5 mps 759 mmHg 11%
    14:00 +20°C° 0 mm 5 mps 759 mmHg 9%
    15:00 +20°C° 0 mm 5 mps 758 mmHg 9%
    16:00 +21°C° 0 mm 5 mps 757 mmHg 8%
    17:00 +21°C° 0 mm 5 mps 757 mmHg 8%
    18:00 +20°C° 0 mm 5 mps 757 mmHg 9%
    19:00 +18°C° 0 mm 4 mps 757 mmHg 10%
    20:00 +17°C° 0 mm 4 mps 757 mmHg 11%
    21:00 +15°C° 0 mm 4 mps 757 mmHg 12%
    22:00 +15°C° 0 mm 4 mps 757 mmHg 13%
    23:00 +14°C° 0 mm 4 mps 757 mmHg 14%

    Tomorrow, 25 March, Monday

    Time Temperature Precipitation Wind Pressure Humidity
    00:00 +13°C° 0 mm 4 mps 757 mmHg 16%
    01:00 +13°C° 0 mm 3 mps 757 mmHg 18%
    02:00 +12°C° 0 mm 3 mps 757 mmHg 19%
    03:00 +11°C° 0 mm 3 mps 757 mmHg 19%
    04:00 +12°C° 0 mm 2 mps 757 mmHg 18%
    05:00 +10°C° 0 mm 2 mps 757 mmHg 17%
    06:00 +11°C° 0 mm 3 mps 757 mmHg 16%
    07:00 +12°C° 0 mm 4 mps 757 mmHg 15%
    08:00 +13°C° 0 mm 5 mps 758 mmHg 15%
    09:00 +15°C° 0 mm 5 mps 758 mmHg 13%
    10:00 +17°C° 0 mm 6 mps 758 mmHg 11%
    11:00 +20°C° 0 mm 6 mps 759 mmHg 10%
    12:00 +20°C° 0 mm 6 mps 759 mmHg 9%
    13:00 +21°C° 0 mm 6 mps 758 mmHg 9%
    14:00 +22°C° 0 mm 5 mps 758 mmHg 8%
    15:00 +22°C° 0 mm 5 mps 758 mmHg 8%
    16:00 +22°C° 0 mm 4 mps 757 mmHg 8%
    17:00 +22°C° 0 mm 3 mps 757 mmHg 7%
    18:00 +20°C° 0 mm 2 mps 758 mmHg 8%
    19:00 +20°C° 0 mm 1 mps 758 mmHg 9%
    20:00 +17°C° 0 mm 0 mps 759 mmHg 10%
    21:00 +18°C° 0 mm 1 mps 759 mmHg 10%
    22:00 +16°C° 0 mm 1 mps 760 mmHg 11%
    23:00 +15°C° 0 mm 2 mps 760 mmHg 12%

    Day after tomorrow, 26 March, Tuesday

    Time Temperature Precipitation Wind Pressure Humidity
    00:00 +15°C° 0 mm 2 mps 760 mmHg 14%
    01:00 +14°C° 0 mm 2 mps 760 mmHg 15%
    02:00 +12°C° 0 mm 3 mps 761 mmHg 16%
    03:00 +12°C° 0 mm 3 mps 760 mmHg 19%
    04:00 +11°C° 0 mm 4 mps 760 mmHg 21%
    05:00 +11°C° 0 mm 4 mps 760 mmHg 24%
    06:00 +10°C° 0 mm 5 mps 761 mmHg 28%
    07:00 +10°C° 0 mm 5 mps 761 mmHg 31%
    08:00 +10°C° 0 mm 5 mps 761 mmHg 35%
    09:00 +12°C° 0 mm 5 mps 762 mmHg 33%
    10:00 +13°C° 0 mm 5 mps 762 mmHg 30%
    11:00 +15°C° 0 mm 5 mps 762 mmHg 28%
    12:00 +15°C° 0 mm 5 mps 762 mmHg 27%
    13:00 +17°C° 0 mm 4 mps 761 mmHg 26%
    14:00 +17°C° 0 mm 4 mps 760 mmHg 25%
    15:00 +17°C° 0 mm 3 mps 760 mmHg 25%
    16:00 +17°C° 0 mm 3 mps 759 mmHg 26%
    17:00 +17°C° 0 mm 3 mps 758 mmHg 26%
    18:00 +14°C° 0 mm 3 mps 758 mmHg 29%
    19:00 +13°C° 0 mm 3 mps 758 mmHg 31%
    20:00 +12°C° 0 mm 3 mps 759 mmHg 34%
    21:00 +12°C° 0 mm 2 mps 758 mmHg 36%
    22:00 +12°C° 0 mm 2 mps 758 mmHg 38%
    23:00 +10°C° 0 mm 2 mps 758 mmHg 40%

    27 March, Wednesday

    Time Temperature Precipitation Wind Pressure Humidity
    00:00 +10°C° 0 mm 2 mps 758 mmHg 42%
    01:00 +10°C° 0 mm 1 mps 757 mmHg 43%
    02:00 +10°C° 0 mm 1 mps 757 mmHg 44%
    03:00 +10°C° 0 mm 1 mps 757 mmHg 44%
    04:00 +10°C° 0 mm 1 mps 757 mmHg 44%
    05:00 +10°C° 0 mm 1 mps 757 mmHg 43%
    06:00 +10°C° 0 mm 2 mps 757 mmHg 40%
    07:00 +10°C° 0 mm 3 mps 758 mmHg 37%
    08:00 +11°C° 0 mm 3 mps 759 mmHg 34%
    09:00 +13°C° 0 mm 5 mps 760 mmHg 29%
    10:00 +15°C° 0 mm 6 mps 761 mmHg 23%
    11:00 +17°C° 0 mm 7 mps 762 mmHg 17%
    12:00 +17°C° 0 mm 7 mps 762 mmHg 15%
    13:00 +17°C° 0 mm 7 mps 762 mmHg 13%
    14:00 +17°C° 0 mm 7 mps 762 mmHg 11%
    15:00 +17°C° 0 mm 6 mps 762 mmHg 11%
    16:00 +16°C° 0 mm 5 mps 763 mmHg 11%
    17:00 +16°C° 0 mm 5 mps 763 mmHg 11%
    18:00 +14°C° 0 mm 4 mps 764 mmHg 15%
    19:00 +12°C° 0 mm 4 mps 764 mmHg 20%
    20:00 +11°C° 0 mm 4 mps 765 mmHg 24%
    21:00 +10°C° 0 mm 3 mps 766 mmHg 27%
    22:00 +9°C° 0 mm 3 mps 766 mmHg 29%
    23:00 +8°C° 0 mm 3 mps 767 mmHg 32%

    28 March, Thursday

    Time Temperature Precipitation Wind Pressure Humidity
    00:00 +8°C° 0 mm 2 mps 767 mmHg 32%
    01:00 +7°C° 0 mm 2 mps 767 mmHg 32%
    02:00 +8°C° 0 mm 1 mps 767 mmHg 32%
    03:00 +8°C° 0 mm 1 mps 767 mmHg 33%
    04:00 +7°C° 0 mm 1 mps 767 mmHg 33%
    05:00 +7°C° 0 mm 1 mps 767 mmHg 34%
    06:00 +8°C° 0 mm 1 mps 767 mmHg 31%
    07:00 +7°C° 0 mm 2 mps 767 mmHg 29%
    08:00 +8°C° 0 mm 3 mps 768 mmHg 26%
    09:00 +9°C° 0 mm 3 mps 767 mmHg 23%
    10:00 +10°C° 0 mm 3 mps 767 mmHg 19%
    11:00 +13°C° 0 mm 2 mps 767 mmHg 16%
    12:00 +12°C° 0 mm 3 mps 766 mmHg 16%
    13:00 +13°C° 0 mm 4 mps 765 mmHg 16%
    14:00 +14°C° 0 mm 4 mps 764 mmHg 15%
    15:00 +14°C° 0 mm 4 mps 763 mmHg 16%
    16:00 +15°C° 0 mm 4 mps 762 mmHg 16%
    17:00 +15°C° 0 mm 4 mps 761 mmHg 17%
    18:00 +14°C° 0 mm 4 mps 762 mmHg 19%
    19:00 +14°C° 0 mm 4 mps 762 mmHg 21%
    20:00 +13°C° 0 mm 3 mps 762 mmHg 23%
    21:00 +12°C° 0 mm 3 mps 762 mmHg 24%
    22:00 +12°C° 0 mm 3 mps 762 mmHg 26%
    23:00 +12°C° 0 mm 2 mps 762 mmHg 28%

    29 March, Friday

    Time Temperature Precipitation Wind Pressure Humidity
    00:00 +10°C° 0 mm 2 mps 762 mmHg 28%
    01:00 +10°C° 0 mm 2 mps 762 mmHg 29%
    02:00 +10°C° 0 mm 1 mps 762 mmHg 29%
    03:00 +9°C° 0 mm 2 mps 762 mmHg 26%
    04:00 +8°C° 0 mm 2 mps 762 mmHg 23%
    05:00 +8°C° 0 mm 2 mps 762 mmHg 20%
    06:00 +8°C° 0 mm 3 mps 762 mmHg 19%
    07:00 +9°C° 0 mm 3 mps 763 mmHg 18%
    08:00 +10°C° 0 mm 4 mps 763 mmHg 17%
    09:00 +11°C° 0 mm 4 mps 763 mmHg 16%
    10:00 +12°C° 0 mm 4 mps 763 mmHg 14%
    11:00 +14°C° 0 mm 4 mps 763 mmHg 13%
    12:00 +14°C° 0 mm 3 mps 763 mmHg 12%
    13:00 +16°C° 0 mm 3 mps 762 mmHg 11%
    14:00 +17°C° 0 mm 3 mps 761 mmHg 10%
    15:00 +17°C° 0 mm 3 mps 761 mmHg 10%
    16:00 +17°C° 0 mm 3 mps 760 mmHg 10%
    17:00 +17°C° 0 mm 3 mps 759 mmHg 10%
    18:00 +15°C° 0 mm 4 mps 759 mmHg 11%
    19:00 +14°C° 0 mm 4 mps 759 mmHg 13%
    20:00 +13°C° 0 mm 5 mps 759 mmHg 14%
    21:00 +12°C° 0 mm 5 mps 759 mmHg 16%
    22:00 +11°C° 0 mm 6 mps 758 mmHg 17%
    23:00 +10°C° 0 mm 6 mps 758 mmHg 19%
    Show more